Overview Statistics Trail Chart Weather Telemetry Raw packets
 

This is the latest recevied weather packets stored in our database for station/object KC1IUC-15. If no packets are shown the sender has not sent any weather packets the latest 10 day(s).

<< 7 8 9 10 11 12 13 >>
Time Temp. Humidity Pressure Rain* Wind** Luminosity Snow
1788554704 28.33° C 44% 1008.9 hPa 0 mm - 74 W/m² -
1788554404 28.33° C 43% 1008.9 hPa 0 mm - 55 W/m² -
1788554104 28.33° C 43% 1008.9 hPa 0 mm - 75 W/m² -
1788553804 28.89° C 41% 1008.9 hPa 0 mm - 314 W/m² -
1788553504 28.33° C 41% 1009.3 hPa 0 mm - 348 W/m² -
1788553204 28.33° C 41% 1008.9 hPa 0 mm - 382 W/m² -
1788552904 28.89° C 41% 1008.9 hPa 0 mm - 391 W/m² -
1788552604 28.89° C 41% 1008.9 hPa 0 mm - 405 W/m² -
1788552304 28.89° C 42% 1008.9 hPa 0 mm - 420 W/m² -
1788552004 28.89° C 40% 1008.9 hPa 0 mm - 433 W/m² -
1788551704 29.44° C 40% 1008.9 hPa 0 mm - 467 W/m² -
1788551404 29.44° C 40% 1008.9 hPa 0 mm - 455 W/m² -
1788551104 28.89° C 41% 1008.9 hPa 0 mm - 463 W/m² -
1788550804 28.89° C 42% 1008.9 hPa 0 mm - 476 W/m² -
1788550504 28.33° C 41% 1008.9 hPa 0 mm - 492 W/m² -
1788550204 28.33° C 40% 1008.9 hPa 0 mm - 492 W/m² -
1788549904 28.89° C 43% 1008.9 hPa 0 mm - 514 W/m² -
1788549604 29.44° C 40% 1008.9 hPa 0 mm - 515 W/m² -
1788549304 29.44° C 41% 1008.9 hPa 0 mm - 521 W/m² -
1788549004 28.89° C 43% 1008.9 hPa 0 mm - 526 W/m² -
1788548704 28.89° C 40% 1008.9 hPa 0 mm - 535 W/m² -
1788548404 28.89° C 41% 1008.9 hPa 0 mm - 542 W/m² -
1788548104 28.89° C 44% 1009.3 hPa 0 mm - 552 W/m² -
1788547804 28.89° C 43% 1008.9 hPa 0 mm - 559 W/m² -
1788547504 29.44° C 42% 1009.3 hPa 0 mm - 571 W/m² -

* Rain latest hour (hover to see other rain measurements)
** Current wind speed in m/s (hover to see current wind gust speed)